Flag for Sudan Weather past 2 weeks in Khartoum, Sudan

Now
N/A

Sunny.


Feels Like: N/A
Forecast: 85 / 105 °F
Wind: 16 mph from Southwest

Location: Khartoum Airport

Current Time: Aug 2, 2015 at 1:42:35 PM

Latest Report: Aug 2, 2015 at 1:00 PM


Visibility: 10 mi

Pressure: 29.89 "Hg

Humidity: N/A

Dew point: N/A

Location of KhartoumLocation

Historic Weather in Khartoum — Graph

°F

Khartoum temperature yesterday

Maximum temperature yesterday: 102 °F (at 4:00 PM)
Minimum temperature yesterday: 81 °F (at 7:00 AM)
Average temperature yesterday: 92 °F

Past Weeks' High & Low Weather Summary

 TemperatureHumidityPressure
High109 °F (Jul 18, 5:00 PM)79% (Aug 2, 6:00 AM)32.43 "Hg (Aug 2, 6:00 AM)
Low77 °F (Aug 2, 6:00 AM)7% (Jul 18, 1:00 PM)29.68 "Hg (Jul 18, 5:30 PM)
Average94 °F32%29.81 "Hg
* Reported Jul 18 12:30 PM — Aug 2 12:30 PM, Khartoum, Weather by CustomWeather, © 2015

Note: Actual official high and low records may vary slightly from our data, if they occured in-between our weather recording intervals... More about our weather records

Advertising

Khartoum weather history for previous 24 hours

 ConditionsComfort  
Time TempWeatherWind HumidityBarometerVisibility
12:30 PM
Sun, Aug 2
N/ASunny.15 mphN/A29.92 "Hg10 mi
12:00 PM88 °FSunny.18 mph49%29.92 "Hg10 mi
11:30 AMN/ASunny.18 mphN/A29.95 "Hg10 mi
11:00 AM84 °FSunny.21 mph58%29.95 "Hg10 mi
10:30 AMN/ASunny.21 mphN/A29.95 "Hg10 mi
10:00 AM81 °FSunny.15 mph70%29.95 "Hg10 mi
9:30 AMN/ASunny.12 mphN/A29.95 "Hg10 mi
9:00 AM79 °FWarm.20 mph70%29.92 "HgN/A
8:30 AMN/A20 mphN/AN/AN/A
8:00 AM79 °FWarm.20 mph70%29.92 "HgN/A
7:30 AMN/A16 mphN/AN/AN/A
7:00 AM77 °FWarm.16 mph79%29.95 "HgN/A
6:30 AMN/ARain.20 mphN/AN/AN/A
6:00 AM77 °FClear.20 mph79%29.98 "Hg10 mi
5:30 AMN/ARain.20 mphN/AN/A5 mi
5:00 AM79 °FSandstorm.20 mph61%29.98 "Hg5 mi
4:00 AM82 °FSandstorm.16 mph70%29.86 "Hg1 mi
3:30 AMN/ASandstorm.N/AN/A29.83 "Hg5 mi
3:00 AM84 °FClear.12 mph43%29.80 "Hg10 mi
2:30 AMN/AClear.15 mphN/A29.80 "Hg10 mi
2:00 AM81 °FPassing clouds.18 mph51%29.80 "HgN/A
12:30 AMN/APassing clouds.23 mphN/A29.86 "HgN/A
11:00 PM
Sat, Aug 1
84 °FDuststorm.29 mph55%29.89 "Hg0 mi
10:30 PMN/APassing clouds.16 mphN/A29.83 "HgN/A
10:00 PM95 °FClear.17 mph32%29.80 "Hg10 mi
9:00 PM97 °FExtremely hot.14 mph30%29.77 "Hg2 mi
8:30 PMN/A16 mphN/A29.77 "Hg2 mi
8:00 PM99 °FExtremely hot.16 mph27%29.74 "Hg2 mi
7:30 PMN/A14 mphN/A29.74 "Hg2 mi
7:00 PM100 °FExtremely hot.20 mph29%29.74 "Hg2 mi
6:00 PM100 °FExtremely hot.16 mph24%29.71 "Hg4 mi
5:30 PMN/A12 mphN/A29.74 "Hg4 mi
5:00 PM102 °FExtremely hot.16 mph26%29.74 "Hg4 mi
4:30 PMN/A16 mphN/A29.74 "Hg4 mi
4:00 PM102 °FExtremely hot.16 mph26%29.74 "Hg4 mi
3:30 PMN/A21 mphN/A29.77 "Hg4 mi
3:00 PM99 °FSandstorm.18 mph31%29.77 "Hg2 mi
2:30 PMN/A21 mphN/A29.80 "Hg2 mi
2:00 PM97 °FExtremely hot.18 mph32%29.80 "Hg4 mi
1:30 PMN/A18 mphN/A29.83 "Hg4 mi
Weather by CustomWeather, © 2015

See weather overviewHow to use our weather pages